QPF
0.02 0.00 0.00 0.00 0.00 0.00 0.00 0.00 0.00 0.00 0.00 0.00 0.00 0.00 0.00 0.00 0.00 0.00 0.00 0.00 0.00 0.00 0.00 0.00 0.00 0.00 0.00 0.00 0.00 0.00 0.00 0.00 0.00 0.00 0.00 0.00 0.00 0.00 0.00 0.00 0.00 0.00 0.00 0.00
0.02 0.01 0.00 0.00 0.00 0.00 0.00 0.00 0.00 0.00 0.00 0.00 0.00 0.00 0.00 0.00 0.00 0.00 0.00 0.00 0.00 0.00 0.00 0.00 0.00 0.00 0.00 0.00 0.00 0.00 0.00 0.00 0.00 0.00 0.00 0.00 0.00 0.00 0.00 0.00 0.00 0.00 0.00 0.00
0.00 0.00 0.00 0.00 0.00 0.00 0.00 0.00 0.00 0.00 0.00 0.00 0.00 0.00 0.00 0.00 0.00 0.00 0.00 0.00 0.00 0.00 0.00 0.00 0.00 0.00 0.00 0.00 0.00 0.00 0.00 0.00 0.00 0.00 0.00 0.00 0.00 0.00 0.00 0.00 0.00 0.00 0.00 0.00
0.01 0.00 0.00 0.00 0.00 0.00 0.00 0.00 0.00 0.00 0.00 0.00 0.00 0.00 0.00 0.00 0.00 0.00 0.00 0.00 0.00 0.00 0.00 0.00 0.00 0.00 0.00 0.00 0.00 0.00 0.00 0.00 0.00 0.00 0.00 0.00 0.00 0.00 0.00 0.00 0.00 0.00 0.00 0.00
0.07 0.01 0.01 0.00 0.00 0.00 0.00 0.00 0.00 0.00 0.00 0.00 0.00 0.00 0.00 0.00 0.00 0.00 0.00 0.00 0.00 0.00 0.00 0.00 0.00 0.00 0.00 0.00 0.00 0.00 0.00 0.00 0.00 0.00 0.00 0.00 0.00 0.00 0.00 0.00 0.00 0.00 0.00 0.00
0.05 0.03 0.01 0.00 0.00 0.00 0.01 0.00 0.01 0.01 0.02 0.01 0.00 0.00 0.00 0.00 0.00 0.00 0.00 0.00 0.00 0.00 0.00 0.00 0.00 0.00 0.00 0.00 0.00 0.00 0.00 0.00 0.00 0.00 0.00 0.00 0.00 0.00 0.00 0.00 0.00 0.00 0.00 0.00
0.00 0.01 0.02 0.01 0.00 0.00 0.02 0.02 0.02 0.03 0.04 0.01 0.00 0.00 0.00 0.00 0.00 0.00 0.00 0.00 0.00 0.00 0.00 0.00 0.00 0.00 0.00 0.00 0.00 0.00 0.00 0.00 0.00 0.00 0.00 0.00 0.00 0.00 0.00 0.00 0.00 0.00 0.00 0.00
0.01 0.01 0.00 0.04 0.02 0.00 0.00 0.00 0.01 0.01 0.00 0.00 0.00 0.00 0.00 0.00 0.00 0.00 0.00 0.00 0.00 0.00 0.00 0.00 0.00 0.00 0.00 0.00 0.00 0.00 0.00 0.00 0.00 0.00 0.00 0.00 0.00 0.00 0.00 0.00 0.00 0.00 0.00 0.00
0.05 0.03 0.00 0.00 0.00 0.00 0.00 0.02 0.00 0.00 0.00 0.00 0.00 0.00 0.00 0.00 0.00 0.00 0.00 0.00 0.00 0.00 0.00 0.00 0.00 0.00 0.00 0.00 0.00 0.00 0.00 0.00 0.00 0.00 0.00 0.00 0.00 0.00 0.00 0.00 0.00 0.00 0.00 0.00
0.00 0.03 0.01 0.00 0.01 0.01 0.00 0.00 0.01 0.02 0.00 0.00 0.00 0.00 0.00 0.00 0.00 0.00 0.00 0.00 0.00 0.00 0.00 0.00 0.00 0.00 0.00 0.00 0.00 0.00 0.00 0.00 0.00 0.00 0.00 0.00 0.00 0.00 0.00 0.00 0.00 0.00 0.00 0.00
0.01 0.01 0.01 0.10 0.12 0.02 0.00 0.00 0.01 0.00 0.00 0.00 0.00 0.00 0.00 0.00 0.00 0.00 0.00 0.00 0.00 0.00 0.00 0.00 0.00 0.00 0.00 0.00 0.00 0.00 0.00 0.00 0.00 0.00 0.00 0.00 0.00 0.00 0.00 0.00 0.00 0.00 0.00 0.00
0.02 0.10 0.02 0.02 0.09 0.07 0.01 0.00 0.00 0.00 0.00 0.00 0.00 0.00 0.00 0.00 0.00 0.00 0.00 0.00 0.00 0.00 0.00 0.00 0.00 0.00 0.00 0.00 0.00 0.00 0.00 0.00 0.00 0.00 0.00 0.00 0.00 0.00 0.00 0.00 0.00 0.00 0.00 0.00
0.03 0.12 0.11 0.06 0.08 0.06 0.14 0.05 0.00 0.00 0.00 0.00 0.00 0.00 0.00 0.00 0.00 0.00 0.00 0.00 0.00 0.00 0.00 0.00 0.00 0.00 0.00 0.00 0.00 0.00 0.00 0.00 0.00 0.00 0.00 0.00 0.00 0.00 0.00 0.00 0.00 0.00 0.00 0.00
0.09 0.06 0.08 0.05 0.07 0.05 0.01 0.01 0.00 0.00 0.00 0.00 0.00 0.00 0.00 0.00 0.00 0.00 0.00 0.00 0.00 0.00 0.00 0.00 0.00 0.00 0.00 0.00 0.00 0.00 0.00 0.00 0.00 0.00 0.00 0.00 0.00 0.00 0.00 0.00 0.00 0.00 0.00 0.02
0.11 0.17 0.07 0.04 0.03 0.06 0.02 0.00 0.00 0.00 0.00 0.00 0.00 0.00 0.00 0.00 0.00 0.00 0.00 0.00 0.00 0.00 0.00 0.00 0.00 0.00 0.00 0.00 0.00 0.00 0.00 0.00 0.00 0.00 0.00 0.00 0.00 0.00 0.00 0.00 0.00 0.00 0.00 0.01
0.05 0.13 0.08 0.03 0.01 0.06 0.09 0.05 0.02 0.00 0.00 0.00 0.00 0.00 0.00 0.00 0.00 0.00 0.00 0.00 0.00 0.00 0.00 0.00 0.00 0.00 0.00 0.00 0.00 0.00 0.00 0.00 0.00 0.00 0.00 0.00 0.00 0.00 0.00 0.00 0.00 0.00 0.00 0.00
0.25 0.22 0.09 0.03 0.01 0.04 0.13 0.07 0.03 0.02 0.00 0.00 0.00 0.00 0.00 0.00 0.00 0.00 0.00 0.00 0.00 0.00 0.00 0.00 0.00 0.00 0.00 0.00 0.00 0.00 0.00 0.00 0.00 0.00 0.00 0.00 0.00 0.00 0.00 0.00 0.00 0.00 0.00 0.00
0.14 0.24 0.24 0.14 0.05 0.14 0.09 0.01 0.00 0.00 0.00 0.00 0.00 0.00 0.00 0.00 0.00 0.00 0.00 0.00 0.00 0.00 0.00 0.00 0.00 0.00 0.00 0.00 0.00 0.00 0.00 0.00 0.00 0.00 0.00 0.00 0.00 0.00 0.00 0.00 0.00 0.00 0.00 0.00
0.05 0.14 0.18 0.18 0.16 0.07 0.00 0.00 0.00 0.00 0.00 0.00 0.00 0.00 0.00 0.00 0.00 0.00 0.00 0.00 0.00 0.00 0.00 0.00 0.00 0.00 0.00 0.00 0.00 0.00 0.00 0.00 0.00 0.00 0.00 0.00 0.00 0.00 0.00 0.00 0.00 0.00 0.00 0.00
0.01 0.05 0.11 0.13 0.07 0.05 0.00 0.00 0.00 0.00 0.00 0.00 0.00 0.00 0.00 0.00 0.00 0.00 0.00 0.00 0.00 0.00 0.00 0.00 0.00 0.00 0.00 0.00 0.00 0.00 0.00 0.00 0.00 0.00 0.00 0.00 0.00 0.00 0.00 0.00 0.00 0.00 0.00 0.00
0.18 0.12 0.17 0.16 0.08 0.01 0.00 0.00 0.00 0.01 0.01 0.00 0.00 0.00 0.00 0.00 0.00 0.00 0.00 0.00 0.00 0.00 0.00 0.00 0.00 0.00 0.00 0.00 0.00 0.00 0.00 0.00 0.00 0.00 0.00 0.00 0.00 0.00 0.00 0.00 0.00 0.00 0.00 0.00
0.15 0.17 0.17 0.13 0.06 0.00 0.00 0.00 0.00 0.00 0.00 0.00 0.00 0.00 0.00 0.00 0.00 0.00 0.00 0.00 0.00 0.00 0.00 0.00 0.00 0.00 0.00 0.00 0.00 0.00 0.00 0.00 0.00 0.00 0.00 0.00 0.00 0.00 0.00 0.00 0.00 0.00 0.00 0.00
0.09 0.04 0.02 0.02 0.00 0.00 0.00 0.00 0.00 0.00 0.00 0.00 0.00 0.00 0.00 0.00 0.00 0.00 0.00 0.00 0.00 0.00 0.00 0.00 0.00 0.00 0.00 0.00 0.00 0.00 0.00 0.00 0.00 0.00 0.00 0.00 0.00 0.00 0.00 0.00 0.00 0.00 0.00 0.00
0.10 0.08 0.04 0.01 0.00 0.00 0.00 0.00 0.00 0.00 0.00 0.00 0.00 0.00 0.00 0.00 0.00 0.00 0.00 0.00 0.00 0.00 0.00 0.00 0.00 0.00 0.00 0.00 0.00 0.00 0.00 0.00 0.00 0.00 0.00 0.00 0.00 0.00 0.00 0.00 0.00 0.00 0.00 0.00
0.17 0.16 0.10 0.02 0.00 0.00 0.01 0.00 0.00 0.00 0.00 0.00 0.00 0.00 0.00 0.00 0.00 0.00 0.00 0.00 0.00 0.00 0.00 0.00 0.00 0.00 0.00 0.00 0.00 0.00 0.00 0.00 0.00 0.00 0.00 0.00 0.00 0.00 0.00 0.00 0.00 0.00 0.00 0.00
0.09 0.19 0.14 0.04 0.01 0.00 0.00 0.00 0.00 0.00 0.00 0.00 0.00 0.00 0.00 0.00 0.00 0.00 0.00 0.00 0.00 0.00 0.00 0.00 0.00 0.00 0.00 0.00 0.00 0.00 0.00 0.00 0.00 0.00 0.00 0.00 0.00 0.00 0.00 0.00 0.00 0.00 0.00 0.00
MSLP
1020.15 1020.30 1019.66 1019.86 1020.64 1020.75 1020.74 1020.79 1020.56 1019.58 1019.00 1019.00 1018.45 1017.55 1017.36 1016.99 1017.44 1017.46 1017.64 1017.65 1017.61 1017.39 1016.65 1016.81 1017.19 1017.61 1018.18 1018.35 1018.61 1018.98 1019.39 1019.68 1020.26 1020.73 1021.36 1021.77 1021.89 1022.46 1022.64 1022.52 1022.57 1022.93 1023.29 1023.69
1020.36 1019.08 1019.27 1020.26 1020.70 1020.90 1021.08 1020.96 1020.57 1019.84 1019.10 1019.17 1018.73 1017.79 1017.25 1017.04 1016.81 1016.66 1016.79 1016.70 1016.74 1016.80 1016.58 1016.51 1016.80 1017.08 1017.34 1017.58 1017.84 1018.27 1018.46 1018.90 1019.44 1020.06 1020.49 1020.77 1021.40 1021.53 1021.53 1021.99 1022.33 1022.48 1022.67 1022.89
1018.99 1018.46 1019.25 1020.19 1020.51 1021.02 1020.97 1021.03 1020.90 1020.35 1019.41 1019.13 1019.05 1018.05 1017.09 1016.44 1016.08 1015.74 1015.58 1015.47 1015.43 1015.45 1015.58 1015.56 1015.95 1016.10 1016.25 1016.64 1017.06 1017.24 1017.68 1018.17 1018.76 1019.28 1019.88 1020.51 1020.92 1021.42 1021.75 1021.85 1022.05 1021.98 1022.19 1022.40
1019.03 1018.84 1019.07 1019.65 1019.90 1020.39 1020.58 1020.52 1020.85 1020.76 1020.25 1019.71 1019.23 1017.66 1016.27 1015.76 1015.41 1015.12 1014.53 1014.54 1014.45 1014.34 1014.13 1014.23 1014.52 1014.97 1015.19 1015.31 1015.86 1016.40 1016.94 1017.47 1017.92 1018.64 1019.08 1019.39 1019.80 1020.18 1020.31 1020.65 1020.93 1021.09 1021.41 1021.67
1017.89 1018.10 1018.56 1018.92 1018.65 1020.02 1019.81 1019.91 1020.40 1020.70 1020.64 1020.33 1019.60 1019.11 1015.73 1015.44 1015.00 1014.10 1013.43 1013.16 1013.13 1012.99 1013.06 1013.25 1013.40 1013.60 1013.99 1014.53 1014.78 1015.22 1015.97 1016.58 1017.07 1017.71 1018.26 1018.72 1018.95 1019.17 1019.70 1020.11 1020.30 1020.41 1020.61 1020.86
1018.25 1018.26 1017.95 1017.77 1018.39 1019.00 1019.44 1020.06 1020.52 1020.82 1020.86 1020.09 1018.91 1018.90 1015.03 1014.81 1014.04 1013.20 1012.55 1012.13 1012.14 1012.21 1012.09 1012.01 1012.10 1012.35 1012.82 1013.61 1014.10 1014.44 1015.09 1015.51 1016.18 1016.81 1017.47 1017.92 1018.22 1018.61 1019.11 1019.42 1019.73 1019.92 1019.97 1020.26
1018.40 1017.96 1017.81 1017.85 1018.39 1018.78 1019.02 1019.88 1020.49 1021.03 1020.77 1018.28 1018.02 1018.38 1014.01 1013.63 1012.86 1011.94 1011.57 1011.29 1011.46 1011.70 1011.73 1011.57 1011.70 1011.95 1012.14 1012.64 1013.12 1013.64 1014.18 1014.78 1015.24 1015.80 1016.36 1016.94 1017.56 1018.04 1018.04 1018.40 1018.73 1019.25 1019.37 1019.31
1017.85 1017.75 1017.29 1017.34 1017.39 1017.45 1018.06 1018.82 1018.86 1019.22 1019.44 1018.38 1018.07 1016.31 1013.52 1012.43 1011.69 1011.18 1010.76 1011.02 1011.31 1011.59 1011.44 1011.21 1010.95 1011.10 1011.28 1011.63 1012.07 1012.66 1013.23 1013.73 1014.37 1014.85 1015.28 1015.87 1016.48 1016.95 1017.17 1017.41 1017.59 1017.83 1018.00 1017.98
1017.11 1016.80 1015.99 1016.08 1017.05 1017.19 1017.64 1017.51 1016.92 1018.44 1019.56 1018.94 1017.27 1015.06 1013.49 1012.31 1011.81 1011.05 1010.73 1010.92 1010.74 1010.83 1010.92 1011.03 1010.72 1010.51 1010.74 1011.02 1011.21 1011.72 1012.32 1012.79 1013.47 1013.84 1014.32 1014.72 1015.10 1015.57 1015.62 1016.05 1016.63 1016.82 1017.05 1017.20
1016.87 1016.92 1016.64 1016.59 1016.99 1016.60 1016.06 1016.52 1017.57 1017.96 1018.57 1018.15 1016.28 1014.80 1012.65 1012.07 1011.36 1010.57 1010.57 1010.68 1010.69 1010.81 1010.58 1010.64 1010.54 1010.42 1010.50 1010.58 1010.67 1011.14 1011.52 1011.72 1011.96 1012.36 1012.85 1013.43 1013.94 1014.47 1014.80 1015.33 1015.58 1015.75 1015.87 1016.18
1016.80 1016.72 1017.38 1017.02 1016.03 1015.47 1016.26 1016.04 1016.09 1016.43 1017.10 1016.46 1015.70 1013.22 1011.45 1010.79 1010.20 1009.79 1010.00 1010.37 1010.45 1010.61 1010.30 1010.36 1010.48 1010.62 1010.56 1010.65 1010.86 1011.15 1011.49 1011.87 1012.18 1012.31 1012.45 1012.86 1013.28 1013.62 1014.06 1014.33 1014.49 1014.64 1015.02 1015.20
1015.85 1016.25 1016.34 1015.80 1016.03 1015.90 1015.60 1015.06 1015.49 1015.49 1015.13 1015.07 1014.45 1011.82 1010.56 1010.39 1010.15 1009.96 1009.98 1010.24 1010.41 1010.56 1010.29 1010.34 1010.59 1010.56 1010.56 1010.56 1010.90 1011.10 1011.30 1011.57 1011.84 1012.09 1012.31 1012.43 1012.73 1013.03 1013.39 1013.57 1013.66 1014.03 1014.33 1014.62
1014.93 1015.25 1015.77 1015.84 1016.49 1015.89 1015.16 1014.37 1013.68 1014.04 1014.14 1013.74 1013.56 1010.73 1010.16 1009.96 1009.90 1009.96 1010.27 1010.53 1010.64 1010.64 1010.34 1010.38 1010.49 1010.46 1010.62 1010.70 1010.90 1011.11 1011.28 1011.41 1011.71 1011.95 1012.15 1012.37 1012.51 1012.61 1012.74 1012.98 1013.23 1013.43 1013.65 1013.90
1014.58 1014.55 1014.39 1013.81 1013.62 1013.89 1014.12 1013.76 1013.62 1013.65 1013.66 1011.89 1011.53 1010.27 1010.08 1010.13 1010.09 1010.34 1010.51 1010.72 1010.66 1010.66 1010.52 1010.48 1010.75 1010.82 1010.76 1011.02 1011.18 1011.23 1011.43 1011.56 1011.81 1012.03 1012.20 1012.30 1012.39 1012.44 1012.52 1012.62 1012.79 1012.97 1013.12 1013.31
1015.03 1014.13 1014.29 1014.04 1014.01 1013.44 1012.94 1012.92 1012.83 1012.43 1010.97 1011.75 1009.29 1009.86 1009.52 1009.07 1009.27 1009.61 1009.83 1010.32 1010.59 1010.53 1010.48 1010.61 1010.84 1011.09 1011.18 1011.30 1011.52 1011.62 1011.59 1011.73 1011.88 1012.02 1012.24 1012.28 1012.41 1012.41 1012.44 1012.53 1012.58 1012.66 1012.79 1012.89
1015.06 1014.51 1014.02 1013.68 1013.98 1013.53 1013.08 1012.80 1012.12 1011.64 1010.50 1010.69 1009.01 1008.56 1008.22 1008.60 1009.06 1009.63 1009.72 1010.35 1010.59 1010.47 1010.45 1010.41 1010.76 1010.99 1011.28 1011.45 1011.55 1011.60 1011.56 1011.67 1011.92 1012.16 1012.36 1012.57 1012.68 1012.74 1012.96 1013.07 1013.18 1013.24 1013.36 1013.58
1015.21 1015.36 1014.94 1012.85 1013.16 1013.06 1012.24 1010.65 1010.61 1010.53 1009.67 1008.67 1008.14 1005.78 1008.22 1008.44 1008.61 1008.77 1009.22 1009.45 1009.84 1010.13 1010.30 1010.53 1010.86 1011.10 1011.41 1011.67 1011.84 1011.91 1011.81 1011.81 1012.05 1012.35 1012.61 1012.81 1013.01 1013.29 1013.48 1013.49 1013.48 1013.68 1013.88 1014.06
1014.60 1015.07 1015.65 1014.42 1013.20 1010.79 1007.53 1008.74 1008.77 1008.66 1007.26 1007.62 1007.16 1006.18 1006.99 1007.43 1007.58 1008.29 1008.66 1009.14 1009.86 1010.14 1010.41 1010.86 1011.11 1011.53 1011.83 1011.98 1012.22 1012.37 1012.41 1012.38 1012.50 1012.78 1013.06 1013.28 1013.53 1013.67 1013.84 1013.99 1014.09 1014.24 1014.34 1014.37
1013.63 1014.46 1014.82 1014.32 1012.10 1009.53 1007.86 1006.44 1006.56 1007.41 1004.87 1005.41 1006.09 1005.49 1006.50 1007.51 1008.25 1008.43 1008.47 1008.97 1009.66 1010.46 1011.22 1011.70 1011.90 1012.20 1012.56 1012.78 1012.79 1012.92 1013.07 1013.09 1013.19 1013.44 1013.60 1013.81 1014.16 1014.41 1014.56 1014.61 1014.69 1014.67 1014.77 1014.86
1012.67 1012.66 1012.68 1013.19 1011.28 1008.27 1004.43 1005.11 1005.55 1007.38 1006.06 1003.91 1004.62 1004.79 1005.92 1007.52 1008.42 1006.81 1008.61 1009.64 1010.75 1011.62 1011.97 1011.91 1012.52 1013.12 1013.33 1013.46 1013.33 1013.49 1013.95 1014.03 1014.29 1014.33 1014.35 1014.30 1014.51 1014.74 1014.77 1014.84 1015.06 1015.33 1015.42 1015.53
1011.26 1011.85 1011.25 1010.74 1010.33 1007.33 1005.43 1004.88 1005.49 1007.32 1003.12 1002.24 1002.97 1004.01 1005.76 1006.10 1004.31 1007.19 1008.85 1010.23 1011.15 1011.79 1012.19 1012.88 1013.37 1014.05 1014.52 1014.29 1014.13 1014.49 1014.87 1015.04 1015.19 1015.02 1014.99 1015.04 1014.99 1015.02 1015.21 1015.25 1015.39 1015.56 1015.63 1015.69
1009.01 1010.37 1009.80 1009.61 1008.85 1007.42 1005.07 1005.42 1004.30 1003.72 1003.25 1003.18 1003.49 1003.58 1004.07 1004.01 1006.44 1007.65 1009.21 1010.75 1011.66 1012.36 1013.30 1013.98 1014.50 1015.27 1015.46 1015.24 1015.12 1015.47 1015.87 1016.13 1015.93 1015.64 1015.63 1015.58 1015.47 1015.60 1015.75 1015.87 1015.97 1016.09 1016.16 1016.18
1009.17 1008.96 1008.87 1008.26 1006.66 1006.44 1005.79 1005.48 1004.92 1004.46 1004.29 1004.31 1004.51 1003.96 1003.81 1005.07 1006.88 1008.66 1009.90 1011.26 1012.50 1013.50 1014.59 1015.14 1015.56 1016.09 1016.50 1016.50 1016.38 1016.51 1016.86 1016.61 1016.46 1016.29 1016.46 1016.49 1016.22 1016.21 1016.29 1016.34 1016.42 1016.53 1016.66 1016.76
1008.98 1010.23 1009.45 1008.97 1008.55 1008.13 1007.62 1007.23 1007.08 1006.45 1005.58 1005.88 1005.59 1005.07 1005.21 1006.21 1007.68 1009.68 1011.42 1012.85 1013.88 1014.97 1015.70 1016.04 1016.50 1017.10 1017.63 1017.83 1017.62 1017.45 1017.40 1017.13 1017.19 1017.17 1017.14 1017.16 1017.17 1017.21 1017.01 1016.87 1016.79 1016.78 1016.93 1017.02
1013.60 1012.72 1012.08 1011.19 1010.70 1010.17 1009.45 1010.46 1010.44 1008.53 1007.80 1007.17 1006.67 1006.96 1007.67 1008.17 1009.75 1010.96 1012.66 1014.09 1014.99 1015.84 1016.68 1017.09 1017.67 1018.25 1018.47 1018.46 1018.75 1018.86 1018.56 1018.01 1017.91 1017.89 1017.97 1018.04 1018.12 1018.12 1018.20 1018.09 1017.77 1017.63 1017.36 1017.24
1017.83 1017.99 1017.09 1015.76 1015.66 1015.06 1013.23 1013.45 1012.15 1010.78 1010.20 1009.87 1009.14 1009.73 1010.05 1010.39 1011.23 1012.53 1014.14 1015.36 1016.17 1017.11 1017.79 1018.45 1018.63 1018.89 1020.21 1020.56 1020.37 1019.64 1019.07 1018.52 1018.46 1018.64 1018.70 1018.85 1018.91 1018.97 1018.97 1018.96 1018.96 1018.50 1018.16 1017.67
Thickness
5560 5561 5580 5592 5588 5597 5598 5600 5604 5622 5635 5629 5635 5655 5655 5665 5664 5667 5670 5675 5678 5687 5696 5700 5700 5698 5697 5696 5694 5693 5692 5691 5687 5683 5680 5676 5677 5674 5673 5674 5674 5670 5666 5663
5549 5568 5587 5581 5578 5582 5584 5589 5597 5613 5627 5620 5627 5641 5659 5655 5661 5670 5672 5676 5679 5684 5689 5694 5696 5696 5698 5696 5696 5694 5694 5693 5689 5685 5682 5682 5677 5677 5677 5673 5671 5669 5667 5665
5557 5579 5573 5566 5567 5571 5578 5579 5588 5598 5616 5617 5618 5624 5646 5658 5663 5672 5678 5687 5687 5690 5693 5696 5695 5698 5700 5700 5698 5696 5693 5692 5689 5686 5682 5678 5677 5673 5671 5669 5667 5666 5665 5665
5550 5557 5561 5558 5564 5569 5568 5581 5584 5585 5593 5587 5608 5608 5643 5660 5663 5666 5681 5685 5689 5692 5699 5701 5702 5700 5703 5706 5699 5697 5693 5691 5689 5685 5683 5682 5680 5677 5676 5674 5671 5669 5666 5663
5557 5557 5555 5555 5574 5564 5571 5577 5574 5574 5578 5583 5593 5588 5633 5651 5651 5672 5686 5694 5697 5699 5701 5703 5704 5707 5705 5703 5703 5699 5695 5693 5691 5686 5683 5680 5681 5680 5674 5671 5670 5669 5667 5663
5541 5549 5556 5563 5564 5565 5566 5561 5559 5558 5564 5566 5597 5591 5623 5646 5658 5675 5686 5693 5697 5698 5704 5710 5710 5709 5708 5704 5702 5700 5696 5694 5691 5687 5682 5680 5678 5676 5672 5669 5666 5665 5666 5663
5531 5540 5547 5556 5552 5555 5558 5552 5545 5546 5546 5578 5598 5576 5637 5647 5665 5686 5691 5695 5694 5695 5698 5706 5708 5705 5708 5704 5702 5698 5696 5692 5691 5688 5685 5681 5676 5672 5674 5672 5669 5664 5663 5665
5526 5525 5541 5551 5556 5559 5556 5555 5543 5546 5549 5580 5565 5587 5627 5652 5675 5690 5693 5690 5691 5691 5695 5700 5708 5709 5711 5707 5703 5699 5696 5693 5689 5686 5686 5683 5679 5676 5676 5675 5673 5670 5667 5667
5527 5533 5550 5554 5551 5556 5548 5546 5580 5545 5484 5535 5560 5597 5620 5641 5656 5675 5682 5682 5689 5691 5693 5695 5702 5706 5706 5707 5705 5701 5696 5693 5688 5688 5686 5685 5682 5680 5680 5676 5672 5671 5668 5666
5516 5520 5531 5539 5541 5547 5559 5567 5545 5544 5534 5535 5563 5577 5614 5630 5645 5670 5672 5676 5680 5683 5690 5692 5696 5699 5699 5702 5704 5701 5698 5696 5695 5693 5690 5687 5683 5679 5678 5673 5671 5669 5668 5664
5511 5514 5508 5523 5535 5549 5540 5546 5551 5557 5541 5552 5552 5585 5614 5633 5649 5663 5668 5672 5674 5677 5684 5686 5688 5688 5692 5693 5693 5692 5690 5688 5686 5687 5686 5685 5681 5678 5673 5671 5670 5668 5663 5662
5514 5512 5511 5529 5529 5531 5547 5553 5554 5552 5562 5554 5556 5588 5620 5618 5629 5640 5655 5662 5666 5669 5673 5676 5677 5680 5683 5688 5685 5685 5685 5684 5681 5680 5679 5679 5676 5674 5670 5668 5667 5662 5658 5654
5515 5506 5509 5514 5515 5521 5531 5547 5563 5568 5554 5557 5560 5589 5614 5621 5626 5632 5638 5647 5652 5659 5665 5667 5670 5674 5674 5677 5678 5677 5676 5675 5674 5674 5672 5670 5669 5669 5667 5664 5661 5658 5654 5650
5504 5500 5515 5534 5542 5543 5540 5544 5550 5555 5546 5572 5569 5597 5608 5611 5615 5619 5626 5636 5641 5645 5652 5656 5657 5659 5662 5663 5665 5666 5665 5664 5663 5662 5660 5659 5659 5660 5658 5656 5653 5650 5647 5644
5492 5502 5507 5515 5516 5530 5542 5544 5549 5550 5574 5555 5597 5584 5605 5612 5613 5616 5623 5626 5631 5635 5641 5643 5645 5646 5648 5650 5650 5650 5652 5651 5652 5651 5650 5649 5648 5648 5646 5644 5642 5639 5637 5635
5484 5491 5502 5506 5512 5518 5516 5529 5540 5548 5564 5562 5585 5583 5612 5612 5607 5601 5613 5611 5617 5625 5630 5633 5636 5639 5640 5639 5640 5640 5642 5642 5640 5639 5638 5636 5634 5632 5630 5627 5625 5623 5620 5615
5458 5467 5483 5508 5512 5515 5506 5533 5545 5542 5560 5574 5572 5615 5590 5598 5600 5602 5605 5612 5615 5617 5623 5626 5629 5629 5626 5625 5624 5627 5628 5628 5626 5624 5621 5619 5616 5614 5612 5610 5608 5604 5600 5597
5459 5462 5449 5470 5498 5506 5555 5553 5557 5555 5575 5578 5584 5599 5595 5598 5606 5599 5597 5600 5602 5607 5613 5614 5612 5611 5609 5609 5609 5610 5610 5612 5610 5607 5605 5602 5600 5597 5595 5593 5590 5587 5584 5583
5471 5462 5449 5456 5497 5515 5534 5552 5565 5554 5584 5591 5585 5598 5590 5584 5582 5585 5590 5597 5597 5594 5589 5589 5591 5592 5590 5591 5592 5593 5592 5592 5592 5590 5589 5586 5583 5575 5576 5574 5572 5570 5567 5563
5462 5473 5475 5472 5495 5520 5581 5570 5573 5553 5550 5597 5591 5595 5586 5571 5565 5605 5581 5574 5569 5567 5570 5574 5572 5570 5572 5572 5575 5575 5573 5573 5571 5570 5570 5569 5566 5562 5562 5560 5555 5550 5547 5545
5472 5468 5467 5481 5498 5515 5549 5554 5562 5532 5593 5598 5600 5593 5579 5577 5614 5588 5565 5559 5554 5553 5556 5554 5554 5551 5550 5554 5558 5556 5554 5552 5551 5551 5550 5549 5548 5547 5544 5542 5538 5535 5533 5530
5497 5483 5490 5493 5497 5521 5535 5552 5565 5582 5579 5584 5586 5589 5590 5599 5567 5561 5551 5539 5538 5538 5538 5536 5535 5530 5531 5535 5539 5536 5534 5531 5531 5533 5533 5533 5532 5530 5527 5524 5521 5519 5517 5515
5484 5492 5491 5512 5535 5516 5531 5529 5547 5555 5564 5568 5565 5571 5588 5569 5549 5541 5535 5527 5521 5520 5516 5516 5516 5514 5513 5515 5519 5519 5515 5516 5515 5516 5516 5514 5515 5514 5512 5510 5507 5505 5502 5499
5473 5440 5485 5496 5485 5483 5491 5506 5510 5525 5542 5535 5540 5550 5557 5548 5536 5520 5511 5505 5502 5498 5497 5498 5500 5497 5493 5492 5495 5496 5496 5499 5497 5497 5497 5496 5495 5493 5496 5496 5494 5493 5489 5485
5398 5416 5437 5467 5460 5471 5479 5463 5467 5499 5506 5516 5521 5523 5522 5523 5512 5505 5495 5488 5486 5484 5480 5481 5481 5478 5476 5476 5473 5472 5476 5481 5484 5483 5481 5480 5477 5474 5473 5473 5474 5474 5472 5471
5352 5354 5391 5430 5397 5410 5444 5435 5450 5468 5475 5483 5497 5492 5491 5498 5494 5487 5477 5472 5470 5466 5464 5462 5463 5461 5449 5447 5452 5459 5464 5469 5469 5469 5468 5464 5463 5459 5457 5454 5452 5454 5455 5456